星链-5602 (STARLINK-5602 )

导读 | 星芒AI

STARLINK-5602 是 SpaceX 星链计划中的一颗低轨通信卫星,属于第 14 批组网发射的星链卫星之一。该卫星运行在约 550 公里的近地轨道,旨在为全球用户提供高速互联网服务。星链系统通过部署大量卫星,构建覆盖全球的宽带网络,特别服务于偏远地区。STARLINK-5602 采用先进的推进和通信技术,具备自动避障能力,有助于提升网络稳定性和卫星安全性。

基本信息
目录编号:
55743
目录名称:
STARLINK-5602
国际标识:
2023-028C
轨道中心:
EARTH
卫星名称:
星链-5602
卫星全名:
星链-5602 (STARLINK-5602 )
卫星状态:
在轨 (已飞行1024 天)
发射日期:
2023-03-03 UTC
国别 :
美国 (US)
星等 :
--
轨道信息
数据来源 国际轨道数据
星历时间: 2025-12-20T21:30:59+0800
1天前
查看轨道信息
半长轴: 6950.169km
偏心率: 0.0004235
轨道倾角: 70.001°
近地点辐角 281.739°
升交点赤经 84.130°
平近点角 78.330°
近地点: 569.088km
远地点: 574.976km
周期: 96.106分钟
每日圈数: 14.983378
详细信息
固有亮度:
5
最大亮度:
2.5
卫星平台:
Starlink v1.5
覆盖范围:
全球
运营商:
太空探索技术公司
运营商所在国:
美国
制造商(研发单位):
太空探索技术公司
制造商所在国:
美国
使用方式:
暂无
卫星简介
星链(Starlink)计划是由太空探索技术公司(SpaceX)提出的一个巨型低轨卫星互联网星座项目,计划在2019年至2024年间在太空搭建由约1.2万颗卫星组成的“星链”网络,其中1584颗将部署在地球上空550千米处的近地轨道,并从2020年开始工作。该卫星仍在工作。
2D轨道图
3D轨道图
轨道高度分析图
轨道倾角分析图
轨道综合分析图
查看轨道综合分析图